[[{"header":{"parameterUnit":"m.s-1","parameterCategory":1,"la1":30.2991,"la2":30.254,"lo1":-89.0895,"lo2":-89.0444,"dy":0.0017,"dx":0.0017,"nx":28,"ny":28,"refTime":"2024-06-25T21:00:00:Z","depth":0,"parameterNumber":2,"parameterNumberName":"U-component_of_WINDS"},"data":[0,0,0,0,0,0,0,0,0,0,0,0,0,0,0,0,0,0,0,0,0,0,0,0,0,0,0,0,0,0,0,0,0,0,0,0,0,0,0,0,0,0,0,0,0,0,0,0,0,0,0,0,0,0,0,0,0,0,4.1238,4.1239,0,4.1339,4.1341,4.1342,4.1256,4.1252,4.1249,4.1245,4.1349,4.1355,4.1361,0,0,0,0,0,0,0,0,0,0,0,0,0,4.0968,4.0974,4.1238,4.1239,4.124,4.1339,4.1341,4.1342,4.1256,4.1252,4.1248,4.1244,4.1347,4.1354,4.1362,0,0,0,0,0,0,0,0,0,0,0,0,0,4.1079,4.0976,4.1237,4.1209,4.1208,4.1339,4.1341,4.1342,4.1257,4.1252,4.1247,4.1242,4.1345,4.1354,4.1363,4.1526,0,0,4.1391,4.1395,0,0,0,0,0,0,0,0,4.1073,4.1089,4.1212,4.1212,4.121,4.1279,4.1284,4.1404,4.1259,4.1239,4.1245,4.1239,4.133,4.134,4.1371,4.1531,4.1536,4.1391,4.1397,4.1401,4.1403,0,0,0,0,0,0,0,4.1066,4.1084,4.1278,4.1214,4.1213,4.1192,4.1201,4.1306,4.1313,4.124,4.1234,4.1247,4.1329,4.1363,4.1373,4.1537,4.1391,4.1399,4.1405,4.1408,4.1836,4.1841,0,0,0,0,0,0,4.1061,4.1079,4.1275,4.1281,4.1127,4.1201,4.1212,4.1263,4.1312,4.1314,4.1252,4.1243,4.135,4.1362,4.1376,4.157,4.1401,4.1409,4.1415,4.183,4.1837,4.1843,0,0,0,0,0,0,4.1055,4.1079,4.127,4.1178,4.1201,4.1211,4.1269,4.1267,4.1301,4.1321,4.1322,4.1285,4.1346,4.1363,4.1489,4.1572,4.1413,4.1422,4.1823,4.1832,4.184,4.1959,0,0,0,0,0,0,4.1048,4.1078,4.114,4.118,4.1206,4.1382,4.1274,4.1273,4.1317,4.1307,4.1352,4.1355,4.1343,4.1476,4.1499,4.1582,4.1429,4.1816,4.1827,4.1837,4.1948,4.1971,4.1991,0,0,0,0,0,4.1039,4.117,4.1144,4.1168,4.1284,4.1387,4.1402,4.1386,4.1324,4.1387,4.1399,4.1353,4.156,4.149,4.1514,4.1602,4.181,4.1824,4.1837,4.1938,4.1966,4.199,0,0,0,0,0,0,4.1138,4.1174,4.1146,4.1294,4.1338,4.1373,4.1451,4.1417,4.1479,4.1467,4.1444,4.1455,4.1588,4.1608,4.1529,4.1762,4.1675,4.1694,4.1744,4.1771,4.1792,4.1783,4.1437,0,0,0,0,0,4.1178,4.1259,4.1286,4.1413,4.1437,4.1441,4.1485,4.1469,4.1514,4.1532,4.1554,4.1599,4.1674,4.1724,4.1794,4.1951,4.1959,4.2023,4.2045,4.2062,4.2078,4.2161,4.2189,4.1887,4.1887,4.1886,0,0,4.1259,4.1289,4.1341,4.1434,4.1467,4.155,4.1457,4.155,4.1611,4.1546,4.1666,4.1684,4.1733,4.1875,4.1938,4.1895,4.2163,4.2079,4.2093,4.2099,4.2177,4.2206,4.2231,4.1896,4.1894,4.1893,0,0,4.145,4.1482,4.1591,4.1626,4.1676,4.1678,4.1704,4.1745,4.1754,4.1874,4.1827,4.19,4.203,4.2067,4.2102,4.2309,4.2268,4.2332,4.2443,4.2524,4.2548,4.2569,4.2641,4.2667,4.2348,4.2349,4.2349,0,4.1545,4.1669,4.1651,4.1747,4.1789,4.1735,4.1845,4.188,4.1951,4.1981,4.1932,4.2094,4.2123,4.2272,4.2322,4.2354,4.2382,4.2326,4.2546,4.2567,4.2586,4.2654,4.2682,4.2356,4.2355,4.2355,4.2354,0,4.1782,4.1869,4.1952,4.2021,4.2073,4.2176,4.2173,4.2227,4.2208,4.2214,4.2337,4.2371,4.2446,4.2481,4.2463,4.2628,4.2599,4.2549,4.2461,4.2623,4.2686,4.2712,4.2367,4.2364,4.2362,4.236,0,0,4.2036,4.2096,4.2126,4.2157,4.2209,4.2276,4.2377,4.2451,4.2497,4.2549,4.2631,4.2743,4.2697,4.2738,4.2723,4.2795,4.2954,4.2736,4.2737,4.2773,4.3136,4.3171,4.3202,4.2929,4.2934,4.2938,4.3131,0,4.2227,4.2401,4.2389,4.2553,4.2632,4.2583,4.267,4.2712,4.2722,4.279,4.2801,4.288,4.2814,4.2838,4.2907,4.292,4.3026,4.2906,4.3004,4.3008,4.299,4.3235,4.3273,4.3454,4.3156,4.316,4.3163,0,4.2473,4.2533,4.2705,4.2745,4.2778,4.2857,4.2923,4.2991,4.3037,4.3039,4.3085,4.3059,4.3159,4.3071,4.3209,4.3128,4.3167,4.318,4.3187,4.3193,4.3093,4.3246,4.3511,4.3538,4.3203,4.3199,4.3197,0,4.2638,4.2762,4.2881,4.2909,4.296,4.3016,4.304,4.3081,4.3126,4.3185,4.3214,4.3284,4.3322,4.3377,4.337,4.3306,4.351,4.3421,4.3513,4.3513,4.3555,4.3552,4.3829,4.3586,4.3586,4.3585,4.3585,0,4.2851,4.2958,4.2955,4.3028,4.3146,4.3131,4.3248,4.3266,4.3303,4.3378,4.334,4.3411,4.3399,4.3471,4.3466,4.358,4.3599,4.3602,4.3599,4.3604,4.3603,4.3627,4.3613,4.3592,4.3591,4.3589,4.3588,0,4.3054,4.3057,4.3183,4.3221,4.3233,4.3318,4.335,4.3419,4.3426,4.3521,4.3543,4.3554,4.3636,4.3635,4.3729,4.3726,4.3865,4.3849,4.3849,4.3845,4.3936,4.3926,4.4235,4.4274,4.4008,4.4011,4.4013,0,4.3188,4.3269,4.3316,4.3364,4.3391,4.3468,4.3514,4.3503,4.3553,4.3612,4.3674,4.3752,4.3814,4.3947,4.3963,4.4034,4.4018,4.4122,4.4028,4.403,4.4017,4.4011,4.4018,4.4139,4.4142,4.4144,4.4146,0,4.3426,4.3423,4.3491,4.3561,4.3617,4.3671,4.372,4.3762,4.3756,4.3814,4.3897,4.3945,4.4041,4.4118,4.4187,4.4211,4.4178,4.4176,4.42,4.4205,4.42,4.4201,4.3896,4.4168,4.4166,4.4164,4.4163,4.4162,4.3596,4.3665,4.3709,4.3786,4.3823,4.387,4.3936,4.3952,4.4021,4.4098,4.4088,4.418,4.4225,4.4314,4.4344,4.4416,4.438,4.4416,4.4424,4.4433,4.4442,4.4192,4.4429,4.4428,4.4428,4.4427,4.4427,0,4.3829,4.3855,4.3927,4.3997,4.4058,4.4023,4.4076,4.4129,4.4211,4.4255,4.4317,4.4413,4.4488,4.4511,4.4584,4.4638,4.4624,4.4657,4.4651,4.4657,4.4471,4.4441,4.4667,4.4667,4.4666,4.4666,4.4666,4.4666,4.3957,4.4072,4.4075,4.4208,4.4233,4.4323,4.4356,4.44,4.4435,4.4543,4.4606,4.4621,4.4657,4.4732,4.48,4.4805,4.4832,4.4871,4.4869,4.4694,4.467,4.4647,4.4619,4.4878,4.4878,4.5048,4.505,4.5051]},{"header":{"parameterUnit":"m.s-1","parameterCategory":1,"la1":30.2991,"la2":30.254,"lo1":-89.0895,"lo2":-89.0444,"dy":0.0017,"dx":0.0017,"nx":28,"ny":28,"refTime":"2024-06-25T21:00:00:Z","depth":0,"parameterNumber":3,"parameterNumberName":"V-component_of_WINDS"},"data":[0,0,0,0,0,0,0,0,0,0,0,0,0,0,0,0,0,0,0,0,0,0,0,0,0,0,0,0,0,0,0,0,0,0,0,0,0,0,0,0,0,0,0,0,0,0,0,0,0,0,0,0,0,0,0,0,0,0,1.6361,1.6361,0,1.6382,1.6382,1.6382,1.6344,1.6342,1.6341,1.634,1.6363,1.6365,1.6367,0,0,0,0,0,0,0,0,0,0,0,0,0,1.6288,1.629,1.6361,1.6361,1.6361,1.6382,1.6382,1.6382,1.6344,1.6342,1.6341,1.6339,1.6363,1.6365,1.6367,0,0,0,0,0,0,0,0,0,0,0,0,0,1.6315,1.629,1.6361,1.6344,1.6343,1.6382,1.6382,1.6382,1.6344,1.6342,1.634,1.6338,1.6362,1.6365,1.6368,1.6423,0,0,1.6376,1.6377,0,0,0,0,0,0,0,0,1.6314,1.6318,1.6347,1.6346,1.6344,1.6358,1.6365,1.6396,1.6345,1.6344,1.634,1.6337,1.6363,1.6366,1.6374,1.6425,1.6426,1.6376,1.6378,1.6379,1.638,0,0,0,0,0,0,0,1.6312,1.6317,1.6369,1.6347,1.6346,1.6336,1.6338,1.6371,1.6364,1.6344,1.6341,1.6344,1.6362,1.6372,1.6374,1.6426,1.6376,1.6379,1.638,1.6381,1.6522,1.6524,0,0,0,0,0,0,1.6312,1.6316,1.6368,1.637,1.6324,1.6339,1.6341,1.6356,1.6364,1.6363,1.6345,1.6342,1.6368,1.6371,1.6375,1.644,1.6379,1.6382,1.6383,1.652,1.6522,1.6524,0,0,0,0,0,0,1.6311,1.6317,1.6368,1.6342,1.6348,1.6342,1.6359,1.6357,1.6366,1.6365,1.6364,1.6356,1.6366,1.6371,1.6411,1.6441,1.6383,1.6385,1.6517,1.652,1.6523,1.6572,0,0,0,0,0,0,1.6309,1.6317,1.6338,1.6343,1.6349,1.6403,1.6361,1.6359,1.6371,1.6366,1.6375,1.6374,1.6365,1.6407,1.6414,1.6443,1.6388,1.6515,1.6519,1.6522,1.6567,1.6576,1.6583,0,0,0,0,0,1.6306,1.6352,1.6339,1.6346,1.6375,1.6405,1.6409,1.6397,1.6373,1.6394,1.6393,1.6374,1.6436,1.6412,1.6419,1.645,1.6513,1.6518,1.6522,1.6564,1.6574,1.6583,0,0,0,0,0,0,1.6352,1.6352,1.6338,1.6386,1.6396,1.6398,1.6425,1.6409,1.6426,1.6421,1.6406,1.6408,1.6451,1.6454,1.6427,1.6503,1.647,1.6477,1.65,1.651,1.6517,1.6516,1.639,0,0,0,0,0,1.6367,1.6391,1.639,1.6432,1.6438,1.643,1.6443,1.6433,1.6442,1.6446,1.6448,1.6459,1.648,1.6495,1.6515,1.6567,1.6568,1.6592,1.66,1.6606,1.6612,1.6639,1.6649,1.654,1.654,1.654,0,0,1.64,1.6403,1.6419,1.6441,1.6448,1.6472,1.6434,1.6463,1.6481,1.6451,1.6488,1.649,1.6501,1.6547,1.6567,1.6551,1.6642,1.6612,1.6617,1.662,1.6645,1.6655,1.6664,1.6543,1.6542,1.6542,0,0,1.6471,1.6476,1.6512,1.6518,1.6527,1.6522,1.653,1.6535,1.6535,1.6572,1.6549,1.6571,1.6609,1.6617,1.6626,1.6699,1.6681,1.6706,1.6748,1.6774,1.6783,1.679,1.6816,1.6825,1.6712,1.6712,1.6712,0,1.6511,1.6547,1.6532,1.6561,1.6572,1.6544,1.658,1.6587,1.6603,1.6611,1.6592,1.6638,1.6643,1.669,1.6707,1.6716,1.6725,1.6705,1.6782,1.679,1.6797,1.6821,1.6831,1.6715,1.6714,1.6714,1.6714,0,1.6595,1.662,1.6647,1.6662,1.6675,1.6708,1.6698,1.6713,1.6701,1.6698,1.6735,1.674,1.676,1.6771,1.676,1.6816,1.6805,1.6785,1.6752,1.681,1.6833,1.6842,1.6719,1.6718,1.6717,1.6716,0,0,1.6697,1.6701,1.6712,1.6717,1.6724,1.6744,1.6775,1.6793,1.6806,1.6818,1.6843,1.6875,1.6855,1.6865,1.6855,1.6878,1.6935,1.6855,1.6855,1.6869,1.6996,1.7011,1.7022,1.6923,1.6925,1.6926,1.6995,0,1.6768,1.682,1.6806,1.6858,1.6881,1.6855,1.6881,1.6889,1.6886,1.6905,1.6902,1.6925,1.6898,1.6903,1.6925,1.6923,1.696,1.6918,1.6946,1.6948,1.6945,1.7034,1.7051,1.7115,1.7003,1.7005,1.7006,0,1.6858,1.6871,1.6925,1.6927,1.6936,1.696,1.6975,1.6994,1.7001,1.6997,1.7008,1.6993,1.7023,1.6989,1.703,1.7002,1.7013,1.7014,1.7016,1.7018,1.6981,1.7039,1.7136,1.7145,1.702,1.7019,1.7018,0,1.6926,1.6958,1.6993,1.6999,1.7003,1.702,1.7023,1.7028,1.7039,1.7053,1.706,1.7077,1.7087,1.71,1.709,1.7066,1.7132,1.7098,1.713,1.7131,1.7146,1.7145,1.7246,1.7153,1.7153,1.7153,1.7152,0,1.7006,1.704,1.7024,1.7046,1.7083,1.7067,1.7104,1.7104,1.7109,1.713,1.7109,1.7129,1.7114,1.7134,1.7126,1.7161,1.7166,1.7164,1.7161,1.7166,1.7166,1.7173,1.7168,1.7155,1.7155,1.7154,1.7154,0,1.709,1.708,1.7117,1.7117,1.7118,1.7145,1.7145,1.7165,1.716,1.7187,1.7193,1.7186,1.7207,1.7198,1.7222,1.7216,1.7261,1.7252,1.7258,1.7256,1.7289,1.7286,1.7398,1.7411,1.7309,1.731,1.7311,0,1.7142,1.7167,1.7169,1.7181,1.7184,1.7205,1.7216,1.7201,1.7213,1.7223,1.7242,1.7262,1.7276,1.7312,1.7309,1.7327,1.7319,1.7357,1.7321,1.7324,1.7319,1.7317,1.732,1.7364,1.7365,1.7366,1.7367,0,1.7235,1.7228,1.7245,1.7259,1.7272,1.7284,1.7293,1.7304,1.7289,1.7304,1.7326,1.7337,1.736,1.7379,1.7394,1.7397,1.738,1.7378,1.7386,1.7391,1.7393,1.7392,1.7277,1.7375,1.7375,1.7374,1.7373,1.7373,1.7303,1.7324,1.7328,1.7347,1.7352,1.736,1.7379,1.7376,1.7393,1.741,1.74,1.7424,1.743,1.7448,1.7453,1.7473,1.7458,1.747,1.7473,1.7476,1.748,1.739,1.7475,1.7475,1.7475,1.7475,1.7474,0,1.7395,1.7396,1.7413,1.7426,1.744,1.7421,1.743,1.7443,1.7465,1.7471,1.7486,1.751,1.7528,1.7526,1.7543,1.7559,1.7551,1.7564,1.7563,1.7563,1.7493,1.7484,1.757,1.757,1.757,1.7569,1.7569,1.7569,1.7444,1.7478,1.7472,1.7507,1.7508,1.7531,1.7538,1.7545,1.755,1.7577,1.7592,1.759,1.7593,1.761,1.7626,1.7624,1.7632,1.7647,1.7643,1.7578,1.7568,1.7559,1.7551,1.7649,1.7649,1.7712,1.7712,1.7713]}]]